| time (UTC) | temp F | wind direction | speed MPH | gust MPH | rain 1hr in | rain 24hr in | rain mn in | humidity % | barometer mb |
| 20260506122404 | 42 | 133 | 0.0 | 0.0 | 0.00 | 0.00 | 0.01 | 72 | 1013.6 |
| 20260506120302 | 42 | 356 | 0.0 | 4.0 | 0.00 | 0.00 | 0.00 | 69 | 1013.6 |
| 20260506115306 | 43 | 323 | 4.0 | 6.0 | 0.00 | 0.00 | 0.00 | 68 | 1013.5 |
| 20260506114303 | 43 | 309 | 4.0 | 10.0 | 0.00 | 0.00 | 0.00 | 66 | 1013.2 |
| 20260506113304 | 43 | 349 | 0.0 | 3.0 | 0.00 | 0.00 | 0.00 | 60 | 1013.0 |
| 20260506112305 | 43 | 356 | 3.0 | 4.0 | 0.00 | 0.00 | 0.00 | 60 | 1012.8 |
| 20260506111303 | 44 | 8 | 0.0 | 7.0 | 0.00 | 0.00 | 0.00 | 61 | 1012.7 |
| 20260506110304 | 43 | 278 | 2.0 | 9.0 | 0.00 | 0.00 | 0.00 | 61 | 1012.6 |
| 20260506105305 | 43 | 116 | 2.0 | 6.0 | 0.00 | 0.00 | 0.00 | 60 | 1012.6 |
| 20260506104303 | 43 | 272 | 0.0 | 3.0 | 0.00 | 0.00 | 0.00 | 61 | 1012.6 |
| 20260506103304 | 43 | 360 | 2.0 | 5.0 | 0.00 | 0.00 | 0.00 | 60 | 1012.6 |
| 20260506101204 | 43 | 72 | 0.0 | 0.0 | 0.00 | 0.00 | 0.00 | 60 | 1012.6 |
| 20260506100203 | 42 | 72 | 0.0 | 3.0 | 0.00 | 0.00 | 0.00 | 61 | 1012.6 |
| 20260506095203 | 42 | 40 | 0.0 | 8.0 | 0.00 | 0.00 | 0.00 | 61 | 1012.6 |
| 20260506094204 | 42 | 8 | 2.0 | 7.0 | 0.00 | 0.00 | 0.00 | 61 | 1012.6 |
| 20260506093202 | 42 | 10 | 0.0 | 9.0 | 0.00 | 0.00 | 0.00 | 62 | 1012.6 |
| 20260506092202 | 42 | 17 | 3.0 | 0.0 | 0.00 | 0.00 | 0.00 | 61 | 1012.4 |
| 20260506091203 | 42 | 113 | 0.0 | 8.0 | 0.00 | 0.00 | 0.00 | 61 | 1012.4 |
| 20260506090204 | 42 | 360 | 2.0 | 2.0 | 0.00 | 0.00 | 0.00 | 62 | 1012.4 |
| 20260506085202 | 42 | 90 | 0.0 | 4.0 | 0.00 | 0.00 | 0.00 | 62 | 1012.6 |
| 20260506084205 | 42 | 137 | 0.0 | 3.0 | 0.00 | 0.00 | 0.00 | 62 | 1012.6 |
| 20260506083203 | 41 | 161 | 0.0 | 5.0 | 0.00 | 0.00 | 0.00 | 62 | 1012.6 |
| 20260506082204 | 41 | 285 | 2.0 | 5.0 | 0.00 | 0.00 | 0.00 | 62 | 1012.8 |
| 20260506081203 | 41 | 121 | 4.0 | 0.0 | 0.00 | 0.00 | 0.00 | 63 | 1012.8 |
| 20260506073004 | 42 | 131 | 0.0 | 2.0 | 0.00 | 0.00 | 0.00 | 60 | 1013.1 |
| 20260506072004 | 42 | 261 | 0.0 | 0.0 | 0.00 | 0.00 | 0.00 | 59 | 1013.2 |
| 20260506071005 | 42 | 267 | 3.0 | 7.0 | 0.00 | 0.00 | 0.00 | 58 | 1013.2 |
| 20260506060903 | 45 | 145 | 0.0 | 2.0 | 0.00 | 0.00 | 0.00 | 53 | 1013.4 |
| 20260506044605 | 47 | 352 | 3.0 | 7.0 | 0.00 | 0.00 | 0.00 | 48 | 1012.8 |
| 20260506043603 | 47 | 360 | 3.0 | 7.0 | 0.00 | 0.00 | 0.00 | 48 | 1012.7 |
| 20260506042602 | 48 | 37 | 0.0 | 10.0 | 0.00 | 0.00 | 0.00 | 47 | 1012.6 |
| 20260506041603 | 48 | 329 | 3.0 | 8.0 | 0.00 | 0.00 | 0.00 | 46 | 1012.4 |
| 20260506035503 | 48 | 346 | 3.0 | 10.0 | 0.00 | 0.00 | 0.00 | 40 | 1012.3 |
| 20260506034504 | 49 | 360 | 0.0 | 6.0 | 0.00 | 0.00 | 0.00 | 38 | 1012.0 |
| 20260506033504 | 49 | 360 | 2.0 | 9.0 | 0.00 | 0.00 | 0.00 | 38 | 1011.6 |
| 20260506032503 | 50 | 360 | 3.0 | 8.0 | 0.00 | 0.00 | 0.00 | 38 | 1011.5 |
| 20260506031503 | 50 | 243 | 3.0 | 11.0 | 0.00 | 0.00 | 0.00 | 38 | 1011.4 |
| 20260506030504 | 51 | 28 | 4.0 | 9.0 | 0.00 | 0.00 | 0.00 | 35 | 1011.4 |
| 20260506025505 | 51 | 161 | 0.0 | 9.0 | 0.00 | 0.00 | 0.00 | 33 | 1011.1 |
| 20260506023403 | 53 | 319 | 2.0 | 4.0 | 0.00 | 0.00 | 0.00 | 29 | 1011.1 |
| 20260506022403 | 53 | 360 | 3.0 | 8.0 | 0.00 | 0.00 | 0.00 | 27 | 1011.0 |
| 20260506021404 | 53 | 328 | 3.0 | 11.0 | 0.00 | 0.00 | 0.00 | 26 | 1011.1 |
| 20260506020405 | 54 | 152 | 1.0 | 10.0 | 0.00 | 0.00 | 0.00 | 25 | 1010.4 |
| 20260506015403 | 54 | 243 | 2.0 | 8.0 | 0.00 | 0.00 | 0.00 | 24 | 1010.6 |
| 20260506014404 | 55 | 96 | 9.0 | 16.0 | 0.00 | 0.00 | 0.00 | 23 | 1010.2 |
| 20260506013404 | 55 | 8 | 1.0 | 11.0 | 0.00 | 0.00 | 0.00 | 20 | 1010.0 |
| 20260506011303 | 55 | 360 | 1.0 | 9.0 | 0.00 | 0.00 | 0.00 | 21 | 1009.6 |
| 20260506010303 | 56 | 344 | 4.0 | 9.0 | 0.00 | 0.00 | 0.00 | 19 | 1009.5 |
| 20260506005305 | 56 | 18 | 5.0 | 10.0 | 0.00 | 0.00 | 0.00 | 19 | 1009.4 |
| 20260506004302 | 56 | 208 | 4.0 | 7.0 | 0.00 | 0.00 | 0.00 | 19 | 1009.5 |
| 20260506003303 | 56 | 18 | 7.0 | 11.0 | 0.00 | 0.00 | 0.00 | 18 | 1009.2 |
| 20260506002305 | 57 | 8 | 0.0 | 11.0 | 0.00 | 0.00 | 0.00 | 19 | 1009.2 |
| 20260506001302 | 57 | 23 | 4.0 | 18.0 | 0.00 | 0.00 | 0.00 | 19 | 1009.1 |
| 20260506000303 | 58 | 352 | 6.0 | 18.0 | 0.00 | 0.00 | 0.00 | 19 | 1009.0 |
| 20260505235305 | 59 | 10 | 3.0 | 10.0 | 0.00 | 0.00 | 0.00 | 19 | 1009.0 |
| 20260505234304 | 59 | 275 | 3.0 | 9.0 | 0.00 | 0.00 | 0.00 | 21 | 1009.1 |
| 20260505233303 | 58 | 196 | 3.0 | 9.0 | 0.00 | 0.00 | 0.00 | 24 | 1009.2 |
| 20260505231203 | 57 | 223 | 2.0 | 9.0 | 0.00 | 0.00 | 0.00 | 27 | 1009.2 |
| 20260505224003 | 54 | 52 | 9.0 | 17.0 | 0.00 | 0.00 | 0.00 | 30 | 1009.9 |
| 20260505223004 | 54 | 34 | 7.0 | 13.0 | 0.00 | 0.00 | 0.00 | 33 | 1010.6 |
| 20260505222002 | 55 | 330 | 4.0 | 14.0 | 0.00 | 0.00 | 0.00 | 31 | 1010.6 |
| 20260505221003 | 57 | 360 | 3.0 | 9.0 | 0.00 | 0.00 | 0.00 | 26 | 1010.2 |
| 20260505220004 | 57 | 45 | 3.0 | 9.0 | 0.00 | 0.00 | 0.00 | 25 | 1010.0 |
| 20260505215002 | 57 | 256 | 5.0 | 12.0 | 0.00 | 0.00 | 0.00 | 25 | 1010.2 |
| 20260505214003 | 58 | 360 | 0.0 | 18.0 | 0.00 | 0.00 | 0.00 | 22 | 1010.0 |
| 20260505213003 | 59 | 162 | 4.0 | 10.0 | 0.00 | 0.00 | 0.00 | 27 | 1009.8 |
| 20260505212004 | 58 | 360 | 3.0 | 9.0 | 0.00 | 0.00 | 0.00 | 26 | 1009.8 |
| 20260505211002 | 57 | 30 | 1.0 | 15.0 | 0.00 | 0.00 | 0.00 | 23 | 1009.8 |
| 20260505210003 | 56 | 116 | 3.0 | 17.0 | 0.00 | 0.00 | 0.00 | 24 | 1009.8 |
| 20260505205004 | 56 | 309 | 1.0 | 6.0 | 0.00 | 0.00 | 0.00 | 26 | 1009.9 |
| 20260505204002 | 56 | 28 | 5.0 | 10.0 | 0.00 | 0.00 | 0.00 | 28 | 1009.9 |
| 20260505203003 | 55 | 64 | 1.0 | 11.0 | 0.00 | 0.00 | 0.00 | 35 | 1010.0 |
| 20260505200903 | 55 | 110 | 7.0 | 13.0 | 0.00 | 0.00 | 0.00 | 33 | 1010.3 |
| 20260505195904 | 54 | 82 | 9.0 | 20.0 | 0.00 | 0.00 | 0.00 | 37 | 1010.2 |
| 20260505194903 | 56 | 49 | 16.0 | 24.0 | 0.00 | 0.00 | 0.00 | 33 | 1010.3 |
| 20260505193903 | 58 | 200 | 1.0 | 5.0 | 0.00 | 0.00 | 0.00 | 26 | 1009.9 |
| 20260505192904 | 58 | 357 | 0.0 | 4.0 | 0.00 | 0.00 | 0.00 | 26 | 1009.9 |
| 20260505191903 | 57 | 352 | 4.0 | 10.0 | 0.00 | 0.00 | 0.00 | 25 | 1010.0 |
| 20260505190903 | 58 | 352 | 1.0 | 6.0 | 0.00 | 0.00 | 0.00 | 24 | 1010.2 |
| 20260505185904 | 58 | 48 | 1.0 | 5.0 | 0.00 | 0.00 | 0.00 | 26 | 1010.2 |
| 20260505184902 | 58 | 344 | 0.0 | 5.0 | 0.00 | 0.00 | 0.00 | 24 | 1010.4 |
| 20260505183903 | 58 | 350 | 1.0 | 5.0 | 0.00 | 0.00 | 0.00 | 26 | 1010.6 |
| 20260505182904 | 57 | 360 | 2.0 | 9.0 | 0.00 | 0.00 | 0.00 | 27 | 1010.7 |
| 20260505181904 | 57 | 35 | 2.0 | 9.0 | 0.00 | 0.00 | 0.00 | 26 | 1010.8 |
| 20260505180902 | 57 | 339 | 4.0 | 11.0 | 0.00 | 0.00 | 0.00 | 27 | 1010.8 |
| 20260505175903 | 57 | 360 | 6.0 | 14.0 | 0.00 | 0.00 | 0.00 | 28 | 1010.8 |
| 20260505174904 | 57 | 20 | 6.0 | 6.0 | 0.00 | 0.00 | 0.00 | 28 | 1011.1 |
| 20260505171704 | 57 | 20 | 5.0 | 11.0 | 0.00 | 0.00 | 0.00 | 28 | 1011.2 |
| 20260505170705 | 57 | 16 | 4.0 | 8.0 | 0.00 | 0.00 | 0.00 | 28 | 1011.0 |
| 20260505165703 | 56 | 305 | 4.0 | 10.0 | 0.00 | 0.00 | 0.00 | 29 | 1011.1 |
| 20260505164704 | 56 | 7 | 4.0 | 7.0 | 0.00 | 0.00 | 0.00 | 28 | 1011.2 |
| 20260505163704 | 56 | 333 | 3.0 | 10.0 | 0.00 | 0.00 | 0.00 | 29 | 1011.4 |
| 20260505162703 | 55 | 359 | 4.0 | 12.0 | 0.00 | 0.00 | 0.00 | 31 | 1011.4 |
| 20260505151304 | 52 | 11 | 3.0 | 10.0 | 0.00 | 0.00 | 0.00 | 36 | 1012.2 |
| 20260505150304 | 52 | 347 | 4.0 | 10.0 | 0.00 | 0.00 | 0.00 | 36 | 1012.3 |
| 20260505140304 | 46 | 223 | 2.0 | 10.0 | 0.00 | 0.00 | 0.00 | 44 | 1013.4 |
| 20260505130304 | 44 | 124 | 0.0 | 3.0 | 0.00 | 0.00 | 0.00 | 51 | 1014.0 |
| 20260505124303 | 44 | 305 | 0.0 | 1.0 | 0.00 | 0.00 | 0.00 | 51 | 1013.9 |